When you browse on this site, cookies collect data to enhance your experience and personalize the content and advertising you see.
Visit our Privacy Policy to learn more. By continuing to use the site, you agree to this use of cookies and data.

Meteo orario Yulara

Oggi, 20 Settembre, Domenica

Tempo Temperatura Precipitazioni Vento Pressione Umidità
00:00 +20°C° 0 mm 3 m/s 714 mm Hg 19%
01:00 +19°C° 0 mm 3 m/s 714 mm Hg 19%
02:00 +19°C° 0 mm 3 m/s 714 mm Hg 19%
03:00 +19°C° 0 mm 4 m/s 714 mm Hg 19%
04:00 +18°C° 0 mm 4 m/s 713 mm Hg 19%
05:00 +18°C° 0 mm 4 m/s 713 mm Hg 19%
06:00 +18°C° 0 mm 4 m/s 713 mm Hg 20%
07:00 +21°C° 0 mm 5 m/s 714 mm Hg 18%
08:00 +24°C° 0 mm 7 m/s 715 mm Hg 16%
09:00 +28°C° 0 mm 8 m/s 715 mm Hg 14%
10:00 +31°C° 0 mm 9 m/s 715 mm Hg 14%
11:00 +33°C° 0 mm 10 m/s 715 mm Hg 14%
12:00 +36°C° 0 mm 12 m/s 714 mm Hg 14%
13:00 +36°C° 0 mm 11 m/s 714 mm Hg 13%
14:00 +37°C° 0 mm 11 m/s 713 mm Hg 12%
15:00 +37°C° 0 mm 11 m/s 713 mm Hg 12%
16:00 +34°C° 0 mm 9 m/s 713 mm Hg 13%
17:00 +32°C° 0 mm 8 m/s 713 mm Hg 15%
18:00 +30°C° 0 mm 6 m/s 713 mm Hg 16%
19:00 +28°C° 0 mm 6 m/s 713 mm Hg 20%
20:00 +26°C° 0 mm 6 m/s 714 mm Hg 24%
21:00 +25°C° 0 mm 5 m/s 715 mm Hg 27%
22:00 +23°C° 0 mm 6 m/s 715 mm Hg 25%
23:00 +22°C° 0 mm 7 m/s 715 mm Hg 24%

Domani, 21 Settembre, Lunedi

Tempo Temperatura Precipitazioni Vento Pressione Umidità
00:00 +20°C° 0 mm 8 m/s 715 mm Hg 22%
01:00 +18°C° 0 mm 7 m/s 715 mm Hg 22%
02:00 +17°C° 0 mm 6 m/s 715 mm Hg 22%
03:00 +16°C° 0 mm 6 m/s 715 mm Hg 22%
04:00 +15°C° 0 mm 4 m/s 716 mm Hg 23%
05:00 +14°C° 0 mm 3 m/s 716 mm Hg 25%
06:00 +14°C° 0 mm 2 m/s 716 mm Hg 26%
07:00 +14°C° 0 mm 3 m/s 717 mm Hg 24%
08:00 +17°C° 0 mm 4 m/s 718 mm Hg 23%
09:00 +19°C° 0 mm 5 m/s 719 mm Hg 21%
10:00 +21°C° 0 mm 5 m/s 718 mm Hg 19%
11:00 +22°C° 0 mm 4 m/s 718 mm Hg 17%
12:00 +23°C° 0 mm 4 m/s 717 mm Hg 14%
13:00 +25°C° 0 mm 4 m/s 717 mm Hg 13%
14:00 +27°C° 0 mm 5 m/s 717 mm Hg 12%
15:00 +28°C° 0 mm 6 m/s 716 mm Hg 10%
16:00 +26°C° 0 mm 5 m/s 716 mm Hg 11%
17:00 +25°C° 0 mm 5 m/s 716 mm Hg 12%
18:00 +23°C° 0 mm 4 m/s 716 mm Hg 13%
19:00 +21°C° 0 mm 5 m/s 717 mm Hg 15%
20:00 +20°C° 0 mm 5 m/s 718 mm Hg 17%
21:00 +17°C° 0 mm 5 m/s 718 mm Hg 19%
22:00 +16°C° 0 mm 5 m/s 718 mm Hg 23%
23:00 +15°C° 0 mm 5 m/s 718 mm Hg 27%

Dopodomani, 22 Settembre, Martedi

Tempo Temperatura Precipitazioni Vento Pressione Umidità
00:00 +14°C° 0 mm 5 m/s 718 mm Hg 31%
01:00 +14°C° 0 mm 4 m/s 718 mm Hg 34%
02:00 +13°C° 0 mm 4 m/s 718 mm Hg 38%
03:00 +12°C° 0 mm 3 m/s 718 mm Hg 41%
04:00 +12°C° 0 mm 3 m/s 718 mm Hg 44%
05:00 +11°C° 0 mm 3 m/s 719 mm Hg 46%
06:00 +11°C° 0 mm 3 m/s 719 mm Hg 48%
07:00 +13°C° 0 mm 4 m/s 720 mm Hg 42%
08:00 +17°C° 0 mm 4 m/s 720 mm Hg 36%
09:00 +19°C° 0 mm 5 m/s 721 mm Hg 30%
10:00 +21°C° 0 mm 4 m/s 721 mm Hg 27%
11:00 +22°C° 0 mm 3 m/s 720 mm Hg 23%
12:00 +24°C° 0 mm 3 m/s 720 mm Hg 20%
13:00 +25°C° 0 mm 2 m/s 720 mm Hg 18%
14:00 +26°C° 0 mm 1 m/s 719 mm Hg 16%
15:00 +26°C° 0 mm 1 m/s 719 mm Hg 15%
16:00 +26°C° 0 mm 1 m/s 719 mm Hg 16%
17:00 +25°C° 0 mm 2 m/s 719 mm Hg 17%
18:00 +24°C° 0 mm 2 m/s 719 mm Hg 18%
19:00 +22°C° 0 mm 3 m/s 720 mm Hg 20%
20:00 +21°C° 0 mm 4 m/s 720 mm Hg 21%
21:00 +20°C° 0 mm 5 m/s 720 mm Hg 23%
22:00 +19°C° 0 mm 5 m/s 720 mm Hg 25%
23:00 +17°C° 0 mm 5 m/s 721 mm Hg 28%

23 Settembre, Mercoledi

Tempo Temperatura Precipitazioni Vento Pressione Umidità
00:00 +16°C° 0 mm 5 m/s 721 mm Hg 31%
01:00 +15°C° 0 mm 5 m/s 721 mm Hg 34%
02:00 +15°C° 0 mm 5 m/s 720 mm Hg 36%
03:00 +14°C° 0 mm 5 m/s 720 mm Hg 38%
04:00 +13°C° 0 mm 5 m/s 721 mm Hg 40%
05:00 +13°C° 0 mm 5 m/s 721 mm Hg 41%
06:00 +12°C° 0 mm 4 m/s 722 mm Hg 43%
07:00 +15°C° 0 mm 6 m/s 722 mm Hg 38%
08:00 +17°C° 0 mm 7 m/s 723 mm Hg 33%
09:00 +20°C° 0 mm 8 m/s 723 mm Hg 28%
10:00 +22°C° 0 mm 7 m/s 723 mm Hg 26%
11:00 +24°C° 0 mm 7 m/s 723 mm Hg 23%
12:00 +26°C° 0 mm 6 m/s 722 mm Hg 20%
13:00 +27°C° 0 mm 5 m/s 722 mm Hg 18%
14:00 +28°C° 0 mm 4 m/s 721 mm Hg 17%
15:00 +28°C° 0 mm 4 m/s 721 mm Hg 16%
16:00 +27°C° 0 mm 3 m/s 721 mm Hg 17%
17:00 +26°C° 0 mm 3 m/s 721 mm Hg 18%
18:00 +25°C° 0 mm 3 m/s 721 mm Hg 19%
19:00 +23°C° 0 mm 4 m/s 721 mm Hg 20%
20:00 +22°C° 0 mm 4 m/s 721 mm Hg 22%
21:00 +20°C° 0 mm 5 m/s 722 mm Hg 23%
22:00 +19°C° 0 mm 5 m/s 722 mm Hg 25%
23:00 +17°C° 0 mm 5 m/s 721 mm Hg 27%

24 Settembre, Giovedi

Tempo Temperatura Precipitazioni Vento Pressione Umidità
00:00 +16°C° 0 mm 5 m/s 721 mm Hg 29%
01:00 +17°C° 0 mm 4 m/s 721 mm Hg 31%
02:00 +15°C° 0 mm 4 m/s 720 mm Hg 33%
03:00 +14°C° 0 mm 4 m/s 720 mm Hg 35%
04:00 +13°C° 0 mm 4 m/s 720 mm Hg 36%
05:00 +13°C° 0 mm 3 m/s 720 mm Hg 37%
06:00 +12°C° 0 mm 3 m/s 721 mm Hg 38%
07:00 +15°C° 0 mm 4 m/s 721 mm Hg 33%
08:00 +19°C° 0 mm 4 m/s 722 mm Hg 29%
09:00 +21°C° 0 mm 5 m/s 722 mm Hg 24%
10:00 +23°C° 0 mm 4 m/s 721 mm Hg 22%
11:00 +26°C° 0 mm 3 m/s 721 mm Hg 20%
12:00 +28°C° 0 mm 3 m/s 720 mm Hg 17%
13:00 +28°C° 0 mm 2 m/s 719 mm Hg 17%
14:00 +29°C° 0 mm 1 m/s 719 mm Hg 17%
15:00 +30°C° 0 mm 1 m/s 718 mm Hg 17%
16:00 +29°C° 0 mm 1 m/s 718 mm Hg 18%
17:00 +28°C° 0 mm 2 m/s 718 mm Hg 19%
18:00 +27°C° 0 mm 2 m/s 717 mm Hg 21%
19:00 +26°C° 0 mm 3 m/s 718 mm Hg 21%
20:00 +25°C° 0 mm 3 m/s 718 mm Hg 22%
21:00 +24°C° 0 mm 3 m/s 718 mm Hg 22%
22:00 +22°C° 0 mm 3 m/s 718 mm Hg 23%
23:00 +22°C° 0 mm 3 m/s 718 mm Hg 23%

25 Settembre, Venerdi

Tempo Temperatura Precipitazioni Vento Pressione Umidità
00:00 +21°C° 0 mm 3 m/s 718 mm Hg 23%
01:00 +21°C° 0 mm 4 m/s 717 mm Hg 24%
02:00 +20°C° 0 mm 4 m/s 717 mm Hg 24%
03:00 +20°C° 0 mm 5 m/s 717 mm Hg 25%
04:00 +20°C° 0 mm 5 m/s 717 mm Hg 25%
05:00 +19°C° 0 mm 5 m/s 717 mm Hg 25%
06:00 +19°C° 0 mm 4 m/s 718 mm Hg 26%
07:00 +21°C° 0 mm 5 m/s 718 mm Hg 23%
08:00 +23°C° 0 mm 5 m/s 718 mm Hg 21%
09:00 +26°C° 0 mm 5 m/s 718 mm Hg 18%
10:00 +28°C° 0 mm 3 m/s 718 mm Hg 16%
11:00 +29°C° 0 mm 2 m/s 718 mm Hg 14%
12:00 +28°C° 0 mm 0 m/s 717 mm Hg 12%
13:00 +31°C° 0 mm 1 m/s 716 mm Hg 11%
14:00 +32°C° 0 mm 2 m/s 716 mm Hg 10%
15:00 +33°C° 0 mm 3 m/s 715 mm Hg 10%
16:00 +31°C° 0 mm 2 m/s 715 mm Hg 12%
17:00 +29°C° 0 mm 2 m/s 715 mm Hg 15%
18:00 +27°C° 0 mm 1 m/s 716 mm Hg 17%
19:00 +26°C° 0 mm 3 m/s 716 mm Hg 22%
20:00 +23°C° 0 mm 6 m/s 717 mm Hg 26%
21:00 +22°C° 0 mm 8 m/s 717 mm Hg 31%
22:00 +20°C° 0 mm 7 m/s 717 mm Hg 35%
23:00 +19°C° 0 mm 6 m/s 717 mm Hg 38%
Mostrare altro